sat.trackr.live / text

‹ back to catalog

ZHUQUE-2E R/B

NORAD 69095 · 2026-105A

ROCKET_BODY ACTIVE UNKNOWN

§ Identity

Operator
Country
PRC
Launch date
2026-05-14
Launch site
JSC
Launch vehicle
Mass (kg)
RCS (m²)

External: N2YO · Heavens-Above · Gunter

§ Orbital elements

Epoch: 2026-05-24T22:17:33.506592Z

Period
95.44 min
Inclination
88.9785°
Eccentricity
0.0484038
Mean motion
15.08859108 rev/d
Perigee alt
204.8 km
Apogee alt
874.5 km
Semi-major
6,917.8 km
B*
5.0134e-4
RAAN
197.4206°
Arg perigee
26.7778°
Mean anomaly
335.7584°
Rev number
163

§ Raw data

ZHUQUE-2E R/B1 69095U 26105A   26144.92886003  .00203121 -10055-5  50134-3 0  99982 69095  88.9785 197.4206 0484038  26.7778 335.7584 15.08859108  1639

JSON: /api/v1/satellites/69095 · /tle

For live sub-satellite position, see the globe view (requires WebGL).

§ Visibility from observer

Set your observer location to see the next 7 days of passes ≥ 10°. The values pass through the URL so the page stays shareable.

No JS? Fill the form by hand. The geolocation button needs JavaScript.